Location: Newark
(33.7579°N, 132.8129°E)
Time: 07:54:27
(UTC+00:00)

Hubble Space Telescope - Pass Details

Date: 19 November 2019
Orbit: 536 x 540 km, 28.5° (Epoch: 12 December)

Event Time Altitude Azimuth Distance (km) Brightness Sun altitude
Rises 10:07:05 0° 243° (WSW) 2,668 5.4 -25.5°
Reaches altitude 10° 10:09:30 10° 233° (SW) 1,779 4.2 -26.0°
Enters shadow 10:12:01 27° 201° (SSW) 1,053 2.4 -26.5°
